Location: Clanezzo
(45.7500°N, 9.6000°E)
Time: 05:47:05
(UTC+00:00)

Max Valier Satellite - Visible Passes

Search period start: 28 June 2022 00:00
Search period end: 08 July 2022 00:00
Orbit: 478 x 490 km, 97.2° (Epoch: 27 June)

Date Brightness Start Highest point End Pass type
(mag) Time Alt. Az. Time Alt. Az. Time Alt. Az.
29 Jun ? 20:18:16 10° WSW 20:19:44 12° W 20:21:13 10° WNW visible
30 Jun ? 19:52:09 10° SSW 19:55:03 23° W 19:57:58 10° NW visible
03 Jul ? 20:13:13 10° WSW 20:15:05 14° W 20:16:59 10° WNW visible
04 Jul ? 19:47:19 10° SSW 19:50:21 25° W 19:53:25 10° NW visible
07 Jul ? 20:08:03 10° SW 20:10:13 15° W 20:12:26 10° NW visible
